Location: Blanot
(47.1713°N, 4.2340°E)
Time: 10:22:38
(UTC+00:00)

Cosmos 2369 - Pass Details

Date: 14 July 2020
Orbit: 839 x 857 km, 71.0° (Epoch: 05 August)

Event Time Altitude Azimuth Distance (km) Brightness Sun altitude
Rises 01:38:52 0° 333° (NNW) 3,435 7.4 -16.9°
Reaches altitude 10° 01:41:20 10° 334° (NNW) 2,497 6.6 -16.7°
Maximum altitude 01:47:05 82° 62° (ENE) 871 3.8 -16.2°
Drops below altitude 10° 01:52:49 10° 151° (SSE) 2,484 5.8 -15.8°
Enters shadow 01:54:53 - 152° (SSE) 3,272 6.5 -15.6°
